FW3914 Weather Reports


Display with metric or nautical units.
time (UTC)temp
F
wind
direction
speed
MPH
gust
MPH
rain 1hr
in
rain 24hr
in
rain mn
in
humidity
%
barometer
mb
20260506015519 74 321 3.0 6.0 0.00 0.00 0.00 72 1006.1
20260506015016 75 191 1.0 3.0 0.00 0.00 0.00 72 1006.3
20260506014513 75 198 2.0 3.0 0.00 0.00 0.00 72 1005.9
20260506014009 75 265 2.0 3.0 0.00 0.00 0.00 72 1006.0
20260506013507 75 250 2.0 3.0 0.00 0.00 0.00 71 1006.1
20260506013003 75 182 0.0 3.0 0.00 0.00 0.00 71 1005.8
20260506012459 75 266 0.0 5.0 0.00 0.00 0.00 71 1006.0
20260506011957 75 248 1.0 5.0 0.00 0.00 0.00 70 1006.2
20260506011454 75 244 2.0 5.0 0.00 0.00 0.00 70 1005.8
20260506010950 75 3 2.0 6.0 0.00 0.00 0.00 69 1005.8
20260506010450 75 304 3.0 11.0 0.00 0.00 0.00 69 1005.8
20260506005945 76 268 2.0 6.0 0.00 0.00 0.00 70 1005.5
20260506005443 76 244 2.0 7.0 0.00 0.00 0.00 71 1005.5
20260506004938 77 351 3.0 10.0 0.00 0.00 0.00 70 1005.6
20260506004436 78 221 3.0 7.0 0.00 0.00 0.00 69 1005.5
20260506003932 78 231 2.0 9.0 0.00 0.00 0.00 68 1005.2
20260506003429 79 346 3.0 4.0 0.00 0.00 0.00 67 1005.1
20260506002925 79 260 0.0 5.0 0.00 0.00 0.00 67 1005.3
20260506002421 80 230 3.0 9.0 0.00 0.00 0.00 66 1005.6
20260506001917 80 269 2.0 7.0 0.00 0.00 0.00 66 1005.3
20260506001414 80 32 1.0 6.0 0.00 0.00 0.00 65 1005.4
20260506000911 81 351 2.0 8.0 0.00 0.00 0.00 64 1005.3
20260506000409 82 237 2.0 7.0 0.00 0.00 0.00 63 1004.7
20260505235905 82 262 1.0 5.0 0.00 0.00 0.00 63 1004.6
20260505235404 83 61 3.0 6.0 0.00 0.00 0.00 61 1004.4
20260505234900 84 315 2.0 5.0 0.00 0.00 0.00 58 1004.6
20260505234358 85 255 2.0 5.0 0.00 0.00 0.00 55 1004.6
20260505233854 85 273 4.0 6.0 0.00 0.00 0.00 55 1004.6
20260505233352 85 231 3.0 4.0 0.00 0.00 0.00 62 1004.4
20260505232849 85 225 2.0 8.0 0.00 0.00 0.00 72 1004.6
20260505232347 85 182 2.0 5.0 0.00 0.00 0.00 71 1004.2
20260505231844 85 222 2.0 12.0 0.00 0.00 0.00 71 1003.8
20260505231341 86 184 3.0 5.0 0.00 0.00 0.00 70 1004.0
20260505230839 86 140 3.0 6.0 0.00 0.00 0.00 70 1003.8
20260505230336 86 240 1.0 7.0 0.00 0.00 0.00 70 1003.6
20260505225833 86 200 3.0 8.0 0.00 0.00 0.00 69 1003.6
20260505225330 87 239 3.0 7.0 0.00 0.00 0.00 68 1003.9
20260505224825 87 227 3.0 9.0 0.00 0.00 0.00 67 1003.9
20260505224323 87 210 2.0 7.0 0.00 0.00 0.00 67 1003.8
20260505223820 87 251 2.0 8.0 0.00 0.00 0.00 66 1003.6
20260505223317 89 119 2.0 6.0 0.00 0.00 0.00 63 1003.6
20260505222813 90 217 3.0 7.0 0.00 0.00 0.00 61 1003.7
20260505222309 92 182 4.0 8.0 0.00 0.00 0.00 58 1003.3
20260505221806 91 216 2.0 6.0 0.00 0.00 0.00 56 1003.6
20260505221303 91 253 3.0 7.0 0.00 0.00 0.00 55 1003.7
20260505220800 91 238 3.0 10.0 0.00 0.00 0.00 55 1003.5
20260505220257 90 218 2.0 8.0 0.00 0.00 0.00 54 1003.6
20260505215755 91 221 2.0 9.0 0.00 0.00 0.00 53 1003.9
20260505215253 93 217 4.0 10.0 0.00 0.00 0.00 51 1003.7
20260505214750 93 206 6.0 12.0 0.00 0.00 0.00 52 1003.6
20260505214248 91 218 6.0 14.0 0.00 0.00 0.00 54 1003.4
20260505213745 93 237 2.0 10.0 0.00 0.00 0.00 52 1003.7
20260505213242 93 204 5.0 9.0 0.00 0.00 0.00 52 1003.8
20260505212737 92 287 2.0 11.0 0.00 0.00 0.00 53 1003.8
20260505212235 90 178 5.0 10.0 0.00 0.00 0.00 55 1004.1
20260505211732 91 201 5.0 10.0 0.00 0.00 0.00 55 1004.1
20260505211229 93 206 8.0 12.0 0.00 0.00 0.00 52 1004.0
20260505210726 92 292 6.0 12.0 0.00 0.00 0.00 52 1003.9
20260505210222 92 218 3.0 12.0 0.00 0.00 0.00 53 1003.8
20260505205720 91 190 7.0 12.0 0.00 0.00 0.00 54 1003.9
20260505205218 92 261 4.0 14.0 0.00 0.00 0.00 54 1004.0
20260505204714 91 227 3.0 11.0 0.00 0.00 0.00 56 1004.2
20260505204212 91 227 2.0 8.0 0.00 0.00 0.00 57 1004.3
20260505203709 89 225 5.0 10.0 0.00 0.00 0.00 60 1004.5
20260505203206 89 203 7.0 11.0 0.00 0.00 0.00 60 1004.3
20260505202702 90 184 5.0 14.0 0.00 0.00 0.00 59 1004.6
20260505202158 89 262 5.0 10.0 0.00 0.00 0.00 61 1004.6
20260505201654 90 201 5.0 15.0 0.00 0.00 0.00 60 1004.7
20260505201153 90 206 4.0 9.0 0.00 0.00 0.00 60 1004.6
20260505200651 89 218 3.0 10.0 0.00 0.00 0.00 63 1004.7
20260505200147 89 192 2.0 8.0 0.00 0.00 0.00 63 1004.7
20260505195643 89 240 5.0 9.0 0.00 0.00 0.00 61 1004.5
20260505195140 88 205 7.0 11.0 0.00 0.00 0.00 63 1004.7
20260505194638 89 213 5.0 16.0 0.00 0.00 0.00 63 1004.6
20260505194134 87 225 3.0 13.0 0.00 0.00 0.00 65 1004.7
20260505193630 87 230 6.0 12.0 0.00 0.00 0.00 64 1004.6
20260505193127 88 193 5.0 9.0 0.00 0.00 0.00 64 1004.5
20260505192626 87 234 7.0 12.0 0.00 0.00 0.00 64 1004.7
20260505192123 87 216 8.0 8.0 0.00 0.00 0.00 64 1004.6
20260505191622 87 180 5.0 9.0 0.00 0.00 0.00 66 1004.8
20260505191119 86 207 5.0 10.0 0.00 0.00 0.00 65 1004.8
20260505190615 86 201 7.0 12.0 0.00 0.00 0.00 65 1004.8
20260505190110 86 246 4.0 15.0 0.00 0.00 0.00 66 1005.0
20260505185607 85 262 4.0 9.0 0.00 0.00 0.00 67 1004.8
20260505185103 84 233 10.0 14.0 0.00 0.00 0.00 68 1004.8
20260505184600 84 215 2.0 12.0 0.00 0.00 0.00 68 1004.9
20260505184057 84 192 6.0 11.0 0.00 0.00 0.00 68 1005.0
20260505183553 84 196 6.0 15.0 0.00 0.00 0.00 68 1005.0
20260505183051 84 207 8.0 15.0 0.00 0.00 0.00 68 1004.9
20260505182547 84 215 3.0 14.0 0.00 0.00 0.00 68 1004.8
20260505182044 84 224 5.0 12.0 0.00 0.00 0.00 68 1004.9
20260505181541 84 196 4.0 17.0 0.00 0.00 0.00 68 1004.8
20260505181038 84 203 4.0 14.0 0.00 0.00 0.00 67 1004.9
20260505180533 86 179 8.0 9.0 0.00 0.00 0.00 66 1004.9
20260505180032 85 224 5.0 12.0 0.00 0.00 0.00 67 1005.1
20260505175532 85 268 3.0 10.0 0.00 0.00 0.00 68 1005.1
20260505175029 84 231 5.0 13.0 0.00 0.00 0.00 68 1004.9
20260505174526 84 200 12.0 13.0 0.00 0.00 0.00 68 1004.8
20260505174022 84 201 5.0 11.0 0.00 0.00 0.00 69 1005.0
20260505173519 84 216 4.0 11.0 0.00 0.00 0.00 68 1005.0
20260505173016 84 213 5.0 11.0 0.00 0.00 0.00 69 1005.1
20260505172514 84 208 14.0 14.0 0.00 0.00 0.00 68 1005.2
20260505172009 83 265 6.0 13.0 0.00 0.00 0.00 69 1005.4
20260505171505 83 207 5.0 13.0 0.00 0.00 0.00 70 1005.2
20260505171002 83 237 5.0 9.0 0.00 0.00 0.00 70 1005.0
20260505170458 82 207 3.0 11.0 0.00 0.00 0.00 70 1005.2
20260505165954 83 243 5.0 13.0 0.00 0.00 0.00 69 1005.3
20260505165450 82 209 5.0 11.0 0.00 0.00 0.00 71 1005.1
20260505164945 82 222 5.0 13.0 0.00 0.00 0.00 71 1005.2
20260505164442 81 222 7.0 13.0 0.00 0.00 0.00 71 1005.4
20260505163940 81 185 9.0 17.0 0.00 0.00 0.00 71 1005.2
20260505163439 81 247 3.0 13.0 0.00 0.00 0.00 71 1005.1
20260505162938 81 181 6.0 15.0 0.00 0.00 0.00 71 1005.0
20260505162433 81 192 4.0 18.0 0.00 0.00 0.00 72 1005.0
20260505161930 81 182 6.0 20.0 0.00 0.00 0.00 71 1004.8
20260505161426 81 226 5.0 14.0 0.00 0.00 0.00 72 1005.1
20260505160924 81 181 4.0 10.0 0.00 0.00 0.00 72 1004.7
20260505160422 81 242 4.0 12.0 0.00 0.00 0.00 72 1004.7
20260505152858 80 197 3.0 11.0 0.00 0.00 0.00 76 1004.7
20260505152350 79 177 5.0 13.0 0.00 0.00 0.00 76 1004.8
20260505151849 78 186 5.0 12.0 0.00 0.00 0.00 78 1005.1
20260505151346 78 228 4.0 22.0 0.00 0.00 0.00 79 1005.0
20260505150843 77 212 2.0 12.0 0.00 0.00 0.00 80 1005.0
20260505150340 77 160 7.0 11.0 0.00 0.00 0.00 79 1004.9
20260505140304 73 256 3.0 8.0 0.00 0.00 0.00 85 1005.2
20260505130147 72 259 2.0 9.0 0.00 0.00 0.00 87 1004.6
20260505124637 71 238 2.0 6.0 0.00 0.00 0.00 88 1004.7
20260505124133 71 174 4.0 10.0 0.00 0.00 0.00 88 1004.6
20260505123629 71 198 3.0 8.0 0.00 0.00 0.00 88 1004.1
20260505123126 71 186 2.0 10.0 0.00 0.00 0.00 88 1004.1
20260505122623 71 254 2.0 9.0 0.00 0.00 0.00 88 1003.9
20260505122120 71 183 3.0 9.0 0.00 0.00 0.00 88 1004.5
20260505121617 71 201 3.0 8.0 0.00 0.00 0.00 88 1004.4
20260505121114 71 247 6.0 13.0 0.00 0.00 0.00 88 1004.3
20260505120610 71 172 4.0 10.0 0.00 0.00 0.00 88 1004.1
20260505120106 71 225 7.0 11.0 0.00 0.00 0.00 88 1004.2
20260505115600 71 75 2.0 8.0 0.00 0.00 0.00 88 1004.1
20260505115058 71 201 4.0 12.0 0.00 0.00 0.00 88 1004.2
20260505114555 71 253 3.0 8.0 0.00 0.00 0.00 88 1004.2
20260505114051 71 220 3.0 9.0 0.00 0.00 0.00 88 1004.3
20260505113547 71 207 5.0 10.0 0.00 0.00 0.00 87 1004.0
20260505113044 71 199 4.0 9.0 0.00 0.00 0.00 88 1003.7
20260505112540 71 209 5.0 7.0 0.00 0.00 0.00 88 1003.8
20260505112038 71 198 4.0 14.0 0.00 0.00 0.00 88 1004.0
20260505111532 71 215 9.0 11.0 0.00 0.00 0.00 88 1003.8
20260505111029 71 231 4.0 9.0 0.00 0.00 0.00 88 1003.7
20260505110525 71 175 2.0 9.0 0.00 0.00 0.00 88 1003.5
20260505101958 71 218 6.0 10.0 0.00 0.00 0.00 87 1003.9
20260505101455 71 230 2.0 11.0 0.00 0.00 0.00 87 1003.9
20260505100952 71 150 4.0 11.0 0.00 0.00 0.00 87 1004.0
20260505100449 71 243 4.0 10.0 0.00 0.00 0.00 87 1004.1
20260505095945 71 208 3.0 13.0 0.00 0.00 0.00 87 1003.9
20260505095442 71 223 2.0 12.0 0.00 0.00 0.00 87 1003.9
20260505094938 71 264 4.0 9.0 0.00 0.00 0.00 87 1004.1
20260505094435 71 222 4.0 10.0 0.00 0.00 0.00 87 1004.1
20260505093931 71 227 3.0 17.0 0.00 0.00 0.00 87 1004.4
20260505093428 71 161 5.0 16.0 0.00 0.00 0.00 87 1004.2
20260505092925 71 140 3.0 11.0 0.00 0.00 0.00 87 1004.3
20260505092423 71 95 2.0 11.0 0.00 0.00 0.00 87 1004.5
20260505091920 71 253 2.0 13.0 0.00 0.00 0.00 87 1004.3
20260505091418 71 271 2.0 11.0 0.00 0.00 0.00 87 1004.5
20260505090916 71 193 5.0 14.0 0.00 0.00 0.00 87 1004.2
20260505090414 71 227 5.0 11.0 0.00 0.00 0.00 87 1004.3
20260505085911 71 187 6.0 15.0 0.00 0.00 0.00 87 1004.4
20260505085409 71 150 1.0 14.0 0.00 0.00 0.00 87 1004.5
20260505084906 71 227 2.0 11.0 0.00 0.00 0.00 87 1004.4
20260505084405 71 191 7.0 11.0 0.00 0.00 0.00 87 1004.4
20260505083902 71 203 6.0 11.0 0.00 0.00 0.00 87 1004.3
20260505083359 71 205 3.0 12.0 0.00 0.00 0.00 87 1004.2
20260505082855 71 190 5.0 13.0 0.00 0.00 0.00 87 1004.2
20260505082351 71 255 4.0 9.0 0.00 0.00 0.00 87 1004.5
20260505081848 71 153 2.0 10.0 0.00 0.00 0.00 87 1004.4
20260505081345 71 233 3.0 11.0 0.00 0.00 0.00 87 1004.4
20260505080842 71 232 4.0 12.0 0.00 0.00 0.00 87 1004.4
20260505080338 71 173 7.0 13.0 0.00 0.00 0.00 87 1004.4
20260505075833 71 157 3.0 11.0 0.00 0.00 0.00 87 1004.6
20260505075330 71 221 5.0 8.0 0.00 0.00 0.00 86 1004.7
20260505074828 71 181 2.0 13.0 0.00 0.00 0.00 86 1004.7
20260505074325 71 174 2.0 11.0 0.00 0.00 0.00 86 1004.8
20260505073822 71 192 6.0 11.0 0.00 0.00 0.00 86 1005.1
20260505073320 71 275 2.0 11.0 0.00 0.00 0.00 85 1005.1
20260505072817 71 218 3.0 10.0 0.00 0.00 0.00 85 1005.3
20260505072313 71 256 4.0 13.0 0.00 0.00 0.00 85 1005.3
20260505071809 71 183 3.0 8.0 0.00 0.00 0.00 85 1005.4
20260505071306 71 195 0.0 8.0 0.00 0.00 0.00 84 1005.3
20260505070804 72 209 4.0 9.0 0.00 0.00 0.00 84 1005.3
20260505070300 72 192 7.0 11.0 0.00 0.00 0.00 84 1005.0
20260505065755 72 262 4.0 8.0 0.00 0.00 0.00 84 1005.5
20260505065252 72 186 3.0 10.0 0.00 0.00 0.00 84 1005.4
20260505064749 72 170 4.0 18.0 0.00 0.00 0.00 83 1005.4
20260505064246 72 217 4.0 10.0 0.00 0.00 0.00 83 1005.6
20260505063744 72 170 4.0 11.0 0.00 0.00 0.00 83 1005.6
20260505063240 72 190 6.0 9.0 0.00 0.00 0.00 83 1005.6
20260505062736 72 207 5.0 13.0 0.00 0.00 0.00 82 1005.5
20260505062234 72 217 3.0 12.0 0.00 0.00 0.00 82 1005.3
20260505061731 72 198 4.0 13.0 0.00 0.00 0.00 82 1005.3
20260505061229 72 254 3.0 9.0 0.00 0.00 0.00 82 1005.7
20260505060726 72 114 6.0 12.0 0.00 0.00 0.00 82 1005.6
20260505060223 72 133 5.0 9.0 0.00 0.00 0.00 81 1005.6
20260505055718 72 262 4.0 14.0 0.00 0.00 0.00 81 1005.8
20260505055215 72 170 12.0 12.0 0.00 0.00 0.00 81 1005.6
20260505054712 72 204 5.0 13.0 0.00 0.00 0.00 81 1005.7
20260505054210 72 235 3.0 8.0 0.00 0.00 0.00 81 1005.9
20260505053708 72 200 3.0 10.0 0.00 0.00 0.00 81 1005.8
20260505053204 72 234 5.0 11.0 0.00 0.00 0.00 80 1005.8
20260505052701 72 168 2.0 10.0 0.00 0.00 0.00 80 1005.9
20260505052158 72 202 2.0 14.0 0.00 0.00 0.00 80 1005.6
20260505051655 72 159 5.0 9.0 0.00 0.00 0.00 80 1005.9
20260505051154 72 243 2.0 15.0 0.00 0.00 0.00 79 1005.9
20260505050651 72 210 6.0 10.0 0.00 0.00 0.00 79 1006.1
20260505050149 72 172 5.0 15.0 0.00 0.00 0.00 79 1006.1
20260505041619 72 183 4.0 10.0 0.00 0.00 0.00 78 1006.4
20260505041116 73 255 2.0 7.0 0.00 0.00 0.00 77 1006.5
20260505040613 73 244 4.0 10.0 0.00 0.00 0.00 77 1006.3
20260505040110 73 214 2.0 9.0 0.00 0.00 0.00 77 1006.3
20260505035606 73 189 3.0 8.0 0.00 0.00 0.00 77 1006.4
20260505035103 73 235 3.0 8.0 0.00 0.00 0.00 77 1006.4
20260505034559 73 150 5.0 9.0 0.00 0.00 0.00 76 1006.1
20260505034056 73 213 3.0 8.0 0.00 0.00 0.00 75 1006.2
20260505033553 73 219 5.0 7.0 0.00 0.00 0.00 75 1006.4
20260505033052 73 253 3.0 10.0 0.00 0.00 0.00 75 1006.4
20260505032549 73 223 4.0 8.0 0.00 0.00 0.00 75 1006.5
20260505032045 73 264 2.0 9.0 0.00 0.00 0.00 75 1006.5
20260505031543 73 161 2.0 9.0 0.00 0.00 0.00 75 1006.4
20260505031039 73 185 6.0 8.0 0.00 0.00 0.00 75 1006.2
20260505030536 74 181 5.0 10.0 0.00 0.00 0.00 74 1006.3
20260505030032 74 212 6.0 11.0 0.00 0.00 0.00 74 1006.3
20260505025528 74 218 3.0 7.0 0.00 0.00 0.00 74 1006.4
20260505025027 74 213 5.0 8.0 0.00 0.00 0.00 74 1006.4
20260505024524 74 143 2.0 10.0 0.00 0.00 0.00 73 1006.3
20260505024021 74 195 2.0 6.0 0.00 0.00 0.00 73 1006.5
20260505023518 74 218 3.0 9.0 0.00 0.00 0.00 73 1006.4
20260505023015 74 128 8.0 8.0 0.00 0.00 0.00 73 1006.1
20260505022513 74 197 1.0 7.0 0.00 0.00 0.00 72 1006.2
20260505022010 75 254 3.0 8.0 0.00 0.00 0.00 72 1006.3
20260505021506 75 202 4.0 9.0 0.00 0.00 0.00 71 1006.1
20260505021003 75 214 4.0 10.0 0.00 0.00 0.00 71 1006.1
20260505020457 75 192 4.0 8.0 0.00 0.00 0.00 71 1006.2
20260505015954 75 140 3.0 11.0 0.00 0.00 0.00 71 1006.0